Flag for U.S.A. Weather past 2 weeks in Hartford, Connecticut, U.S.A.

Now
73 °F

Sunny.


Feels Like: 75 °F
Forecast: 64 / 87 °F
Wind: 5 mph from South

Location: Hartford-Brainard Airport

Current Time: Aug 27, 2014 at 9:28:09 AM

Latest Report: Aug 27, 2014 at 8:53 AM


Visibility: 10 mi

Pressure: 30.01 "Hg

Humidity: 74%

Dew point: 64 °F

Location of HartfordLocation

Historic Weather in Hartford — Graph

°F

Hartford temperature yesterday

Maximum temperature yesterday: 87 °F (at 3:53 PM)
Minimum temperature yesterday: 62 °F (at 5:53 AM)
Average temperature yesterday: 73 °F

Past Weeks' High & Low Weather Summary

 TemperatureHumidityPressure
High87 °F (Aug 25, 2:53 PM)97% (Aug 25, 6:53 AM)30.17 "Hg (Aug 25, 6:53 AM)
Low52 °F (Aug 19, 5:53 AM)32% (Aug 14, 5:53 PM)29.62 "Hg (Aug 13, 1:53 PM)
Average69 °F70%29.97 "Hg
* Reported Aug 12 7:53 AM — Aug 27 7:53 AM, Hartford, Weather by CustomWeather, © 2014

Note: Actual official high and low records may vary slightly from our data, if they occured in-between our weather recording intervals... More about our weather records

Advertising

Hartford weather history for previous 24 hours

 ConditionsComfort  
Time TempWeatherWind HumidityBarometerVisibility
7:53 AM
Aug 27
69 °FSunny.6 mph81%30.02 "Hg10 mi
6:53 AM65 °FClear.5 mph91%30.01 "Hg10 mi
5:53 AM65 °FClear.3 mph91%30.00 "Hg10 mi
4:53 AM65 °FClear.5 mph91%30.01 "Hg10 mi
3:53 AM66 °FClear.6 mph87%30.01 "Hg10 mi
2:53 AM66 °FClear.5 mph90%30.03 "Hg10 mi
1:53 AM68 °FClear.7 mph87%30.04 "Hg10 mi
12:53 AM68 °FClear.3 mph84%30.06 "Hg10 mi
11:53 PM
Aug 26
69 °FClear.6 mph81%30.06 "Hg10 mi
10:53 PM70 °FClear.6 mph79%30.07 "Hg10 mi
9:53 PM71 °FClear.6 mph76%30.09 "Hg10 mi
8:53 PM73 °FClear.6 mph71%30.08 "Hg10 mi
7:53 PM75 °FSunny.9 mph66%30.06 "Hg10 mi
6:53 PM79 °FSunny.8 mph60%30.05 "Hg10 mi
5:53 PM81 °FSunny.8 mph56%30.05 "Hg10 mi
4:53 PM84 °FScattered clouds.12 mph55%30.06 "Hg10 mi
3:53 PM87 °FSunny.6 mph42%30.08 "Hg10 mi
2:53 PM86 °FSunny.8 mph43%30.10 "Hg10 mi
1:53 PM86 °FSunny.6 mph43%30.11 "Hg10 mi
12:53 PM84 °FSunny.5 mph48%30.13 "Hg10 mi
11:53 AM81 °FSunny.6 mph54%30.15 "Hg10 mi
10:53 AM77 °FSunny.6 mph64%30.15 "Hg10 mi
9:53 AM74 °FSunny.No wind71%30.16 "Hg10 mi
Weather by CustomWeather, © 2014

See weather overviewHow to use our weather pages